Date String (YYYY-MM-DD hh:mm:ss) UTC,Instrument flags,Ambient pressure (hPa),Sample flow (lpm),Bypass flow (lpm),Sample temperature (°C),Ambient temperature (°C),ASC tube jacket temperature (°C),LED temperature (°C),Box temperature (°C),Sample RH (%),Span deviation,Mass concentration (μg/m³),Mass concentration (μg/m³),Mass concentration (μg/m³)
DateTimeUTC,F1_M11,P_M11,Q1_M11,Q2_M11,T1_M11,T2_M11,T3_M11,T4_M11,T5_M11,U1_M11,ZSPAN_M11,X0_M11,X2_M11,X1_M11
2021-11-02 19:00:00,,0830.1,5.01,0.00,23.9,23.1,00.0,32.9,25.7,22.3,-000.9,0013.66,0010.55,0009.97
2021-11-02 19:01:00,,0830.1,4.99,0.00,23.9,23.1,00.0,32.9,25.7,22.3,-000.9,0013.60,0010.49,0009.93
2021-11-02 19:02:00,,0830.1,5.01,0.00,23.9,23.2,00.0,32.9,25.7,22.3,-001.0,0013.46,0010.43,0009.90
2021-11-02 19:03:00,,0830.1,4.99,0.00,23.9,23.2,00.0,32.9,25.7,22.3,-001.2,0013.32,0010.41,0009.91
2021-11-02 19:04:00,,0830.0,5.02,0.00,23.9,23.2,00.0,32.9,25.7,22.3,-001.2,0013.88,0010.43,0009.94
2021-11-02 19:05:00,,0830.0,4.99,0.00,23.9,23.2,00.0,32.9,25.7,22.2,-001.4,0014.63,0010.52,0010.00
2021-11-02 19:06:00,,0830.0,5.00,0.00,23.9,23.2,00.0,32.9,25.7,22.1,-001.6,0014.77,0010.58,0010.04
2021-11-02 19:07:00,,0830.0,5.01,0.00,24.0,23.2,00.0,32.9,25.8,22.2,-001.9,0014.86,0010.61,0010.07
2021-11-02 19:08:00,,0829.9,5.00,0.00,24.0,23.2,00.0,32.9,25.8,22.2,-002.0,0014.91,0010.65,0010.10
2021-11-02 19:09:00,,0829.9,4.99,0.00,24.0,23.2,00.0,32.9,25.8,22.1,-002.0,0014.68,0010.68,0010.14
2021-11-02 19:10:00,,0829.9,5.00,0.00,24.0,23.2,00.0,32.9,25.7,22.2,-002.0,0014.50,0010.68,0010.17
2021-11-02 19:11:00,,0829.9,5.00,0.00,24.0,23.2,00.0,32.9,25.8,22.1,-002.1,0014.70,0010.70,0010.19
2021-11-02 19:12:00,,0829.9,5.01,0.00,23.9,23.2,00.0,32.9,25.8,22.1,-002.4,0015.06,0010.76,0010.22
2021-11-02 19:13:00,,0829.9,4.99,0.00,23.9,23.2,00.0,32.9,25.7,22.3,-002.3,0015.08,0010.77,0010.21
2021-11-02 19:14:00,,0829.9,5.01,0.00,24.0,23.2,00.0,32.9,25.7,22.2,-002.0,0015.17,0010.77,0010.21
2021-11-02 19:15:00,,0829.9,5.00,0.00,24.0,23.2,00.0,33.0,25.7,22.3,-001.8,0015.21,0010.77,0010.20
2021-11-02 19:16:00,,0829.8,5.01,0.00,24.0,23.2,00.0,33.0,25.8,22.1,-001.6,0015.21,0010.74,0010.16
2021-11-02 19:17:00,,0829.8,4.99,0.00,24.0,23.2,00.0,33.0,25.8,22.2,-001.4,0015.26,0010.72,0010.13
2021-11-02 19:18:00,,0829.8,5.01,0.00,24.0,23.2,00.0,33.0,25.8,22.0,-001.2,0015.29,0010.68,0010.10
2021-11-02 19:19:00,,0829.8,5.01,0.00,24.0,23.2,00.0,33.0,25.8,22.1,-001.2,0015.57,0010.62,0010.06
2021-11-02 19:20:00,,0829.8,5.00,0.00,24.0,23.2,00.0,33.0,25.8,22.4,-001.6,0015.53,0010.57,0010.02
2021-11-02 19:21:00,,0829.8,5.01,0.00,24.0,23.2,00.0,33.0,25.8,22.2,-001.5,0015.47,0010.54,0009.99
2021-11-02 19:22:00,,0829.8,4.99,0.00,24.0,23.2,00.0,33.0,25.8,22.1,-001.4,0015.80,0010.51,0009.96
2021-11-02 19:23:00,,0829.8,5.01,0.00,24.0,23.2,00.0,33.0,25.8,22.1,-001.4,0015.45,0010.45,0009.94
2021-11-02 19:24:00,,0829.8,5.00,0.00,24.0,23.2,00.0,33.0,25.9,22.0,-001.3,0015.44,0010.45,0009.94
2021-11-02 19:25:00,,0829.8,5.01,0.00,24.0,23.2,00.0,33.0,25.8,21.9,-001.7,0015.32,0010.42,0009.91
2021-11-02 19:26:00,,0829.8,5.00,0.00,24.0,23.2,00.0,33.0,25.8,22.0,-001.8,0014.89,0010.39,0009.89
2021-11-02 19:27:00,,0829.8,5.00,0.00,24.0,23.2,00.0,33.0,25.8,21.9,-001.7,0014.18,0010.35,0009.88
2021-11-02 19:28:00,,0829.8,5.00,0.00,24.0,23.2,00.0,33.0,25.7,21.9,-001.9,0014.09,0010.33,0009.87
2021-11-02 19:29:00,,0829.8,4.99,0.00,23.9,23.2,00.0,33.0,25.7,21.8,-001.9,0014.14,0010.31,0009.86
2021-11-02 19:30:00,,0829.8,5.00,0.00,24.0,23.2,00.0,33.0,25.8,22.0,-002.0,0013.81,0010.29,0009.85
2021-11-02 19:31:00,,0829.8,5.00,0.00,24.0,23.2,00.0,33.0,25.8,21.8,-001.8,0013.77,0010.25,0009.81
2021-11-02 19:32:00,,0829.8,5.00,0.00,24.0,23.2,00.0,33.0,25.7,21.7,-001.9,0013.83,0010.25,0009.78
2021-11-02 19:33:00,,0829.8,5.00,0.00,24.0,23.2,00.0,33.0,25.8,21.7,-001.9,0013.30,0010.26,0009.77
2021-11-02 19:34:00,,0829.8,4.99,0.00,24.0,23.2,00.0,33.0,25.8,21.8,-001.8,0013.15,0010.26,0009.76
2021-11-02 19:35:00,,0829.8,5.01,0.00,24.0,23.2,00.0,33.0,25.8,22.0,-001.9,0013.20,0010.21,0009.73
2021-11-02 19:36:00,,0829.8,4.99,0.00,24.0,23.3,00.0,33.0,25.9,21.9,-001.8,0013.32,0010.23,0009.72
2021-11-02 19:37:00,,0829.7,4.99,0.00,24.0,23.3,00.0,33.0,25.9,22.0,-001.9,0013.24,0010.21,0009.71
2021-11-02 19:38:00,,0829.8,5.00,0.00,24.0,23.3,00.0,33.0,25.9,21.8,-002.1,0013.10,0010.19,0009.68
2021-11-02 19:39:00,,0829.7,4.99,0.00,24.0,23.3,00.0,33.0,25.9,21.6,-002.1,0013.06,0010.17,0009.65
2021-11-02 19:40:00,,0829.7,5.00,0.00,24.0,23.3,00.0,33.0,25.9,21.5,-002.1,0012.87,0010.15,0009.63
2021-11-02 19:41:00,,0829.7,5.00,0.00,24.0,23.2,00.0,33.0,25.9,21.5,-002.1,0013.41,0010.16,0009.61
2021-11-02 19:42:00,,0829.7,5.00,0.00,24.0,23.2,00.0,33.0,25.9,21.8,-001.8,0014.54,0010.20,0009.62
2021-11-02 19:43:00,,0829.6,5.01,0.00,24.0,23.2,00.0,33.0,25.9,21.7,-001.6,0014.87,0010.18,0009.62
2021-11-02 19:44:00,,0829.6,4.99,0.00,24.0,23.2,00.0,33.0,25.8,21.7,-001.4,0014.77,0010.15,0009.61
2021-11-02 19:45:00,,0829.7,5.01,0.00,24.0,23.3,00.0,33.0,25.8,21.7,-001.2,0014.77,0010.14,0009.61
2021-11-02 19:46:00,,0829.7,5.00,0.00,24.0,23.3,00.0,33.0,25.9,21.7,-001.0,0014.65,0010.14,0009.60
2021-11-02 19:47:00,,0829.6,5.00,0.00,24.0,23.3,00.0,33.0,25.9,21.8,-001.2,0014.50,0010.12,0009.59
2021-11-02 19:48:00,,0829.6,4.99,0.00,24.0,23.3,00.0,33.0,25.9,21.8,-001.4,0014.43,0010.10,0009.60
2021-11-02 19:49:00,,0829.5,5.01,0.00,24.0,23.3,00.0,33.0,25.9,21.8,-001.4,0014.74,0010.16,0009.64
2021-11-02 19:50:00,,0829.5,5.00,0.00,24.0,23.3,00.0,33.0,25.9,22.0,-001.3,0015.10,0010.15,0009.67
2021-11-02 19:51:00,,0829.5,5.00,0.00,24.0,23.3,00.0,33.0,25.9,21.9,-001.1,0015.51,0010.18,0009.72
2021-11-02 19:52:00,,0829.5,5.00,0.00,24.0,23.3,00.0,33.0,25.9,22.0,-001.2,0015.04,0010.23,0009.78
2021-11-02 19:53:00,,0829.6,5.00,0.00,24.0,23.3,00.0,33.0,25.9,22.0,-001.4,0014.19,0010.26,0009.82
2021-11-02 19:54:00,,0829.6,5.01,0.00,24.0,23.3,00.0,33.0,25.9,22.0,-001.6,0013.68,0010.34,0009.87
2021-11-02 19:55:00,,0829.5,5.00,0.00,24.0,23.3,00.0,33.0,25.9,22.1,-001.9,0013.86,0010.42,0009.92
2021-11-02 19:56:00,,0829.6,5.00,0.00,24.0,23.3,00.0,33.0,25.9,21.9,-002.0,0013.93,0010.47,0009.96
2021-11-02 19:57:00,,0829.6,5.00,0.00,24.0,23.3,00.0,33.0,25.9,22.0,-002.0,0014.02,0010.52,0010.00
2021-11-02 19:58:00,,0829.6,5.00,0.00,24.0,23.3,00.0,33.0,25.9,21.9,-001.9,0014.08,0010.56,0010.03
2021-11-02 19:59:00,,0829.6,5.01,0.00,24.0,23.3,00.0,33.0,25.9,21.8,-001.7,0014.14,0010.58,0010.05
